FW1697 Weather Reports


time (UTC)temp
F
wind
direction
speed
knots
gust
knots
rain 1hr
in
rain 24hr
in
rain mn
in
humidity
%
barometer
mb
20260507171207 53 195 7.0 10.4 0.00 0.00 0.00 65 1014.6
20260507165707 53 198 5.2 10.4 0.00 0.00 0.00 66 1014.7
20260507165208 53 206 5.2 11.3 0.00 0.00 0.00 66 1014.7
20260507164708 53 192 5.2 10.4 0.00 0.00 0.00 66 1014.8
20260507164206 53 198 7.8 10.4 0.00 0.00 0.00 66 1014.8
20260507163707 53 200 6.1 10.4 0.00 0.00 0.00 66 1014.7
20260507163208 53 209 6.1 8.7 0.00 0.00 0.00 66 1014.7
20260507162707 53 194 4.3 7.8 0.00 0.00 0.00 66 1014.7
20260507162208 53 210 6.1 10.4 0.00 0.00 0.00 65 1014.7
20260507161707 53 197 6.1 10.4 0.00 0.00 0.00 65 1014.7
20260507161206 53 193 4.3 8.7 0.00 0.00 0.00 67 1014.7
20260507160707 53 201 5.2 8.7 0.00 0.00 0.00 66 1014.8
20260507160207 53 202 6.1 14.8 0.00 0.00 0.00 66 1014.8
20260507154707 53 197 7.8 13.0 0.00 0.00 0.00 66 1014.8
20260507153707 52 191 5.2 10.4 0.00 0.00 0.00 67 1014.9
20260507153207 52 207 7.8 11.3 0.00 0.00 0.00 67 1014.9
20260507152706 52 191 8.7 11.3 0.00 0.00 0.00 67 1014.9
20260507152207 52 208 7.0 10.4 0.00 0.00 0.00 68 1015.0
20260507151706 52 195 7.0 10.4 0.00 0.00 0.00 68 1014.9
20260507151207 52 207 8.7 13.0 0.00 0.00 0.00 69 1015.0
20260507150708 51 214 6.1 13.0 0.00 0.00 0.00 70 1015.0
20260507150207 51 191 8.7 13.0 0.00 0.00 0.00 69 1015.0
20260507145707 51 219 7.0 13.9 0.00 0.00 0.00 68 1015.0
20260507145206 51 199 12.2 14.8 0.00 0.00 0.00 68 1014.9
20260507144706 51 201 6.1 12.2 0.00 0.00 0.00 70 1014.9
20260507143706 51 209 8.7 14.8 0.00 0.00 0.00 70 1014.9
20260507143206 51 203 11.3 19.1 0.00 0.00 0.00 69 1015.0
20260507142706 51 199 8.7 13.9 0.00 0.00 0.00 70 1015.0
20260507142207 51 212 8.7 13.0 0.00 0.00 0.00 69 1015.0
20260507141707 51 204 7.8 12.2 0.00 0.00 0.00 70 1015.1
20260507141207 51 206 10.4 15.6 0.00 0.00 0.00 69 1015.1
20260507140707 51 229 8.7 15.6 0.00 0.00 0.00 68 1015.1
20260507140206 51 212 8.7 13.0 0.00 0.00 0.00 69 1015.2
20260507135707 51 200 10.4 15.6 0.00 0.00 0.00 69 1015.3
20260507135207 51 200 9.6 14.8 0.00 0.00 0.00 70 1015.3
20260507134207 51 219 6.1 13.9 0.00 0.00 0.00 69 1015.3
20260507133707 51 224 8.7 18.2 0.00 0.00 0.00 68 1015.3
20260507133207 51 204 7.8 17.4 0.00 0.00 0.00 70 1015.3
20260507132707 51 221 8.7 19.1 0.00 0.00 0.00 68 1015.3
20260507131207 52 202 9.6 13.9 0.00 0.00 0.00 69 1015.3
20260507130707 52 225 11.3 17.4 0.00 0.00 0.00 69 1015.3
20260507130207 52 209 9.6 15.6 0.00 0.00 0.00 70 1015.3
20260507125707 52 209 10.4 17.4 0.00 0.00 0.00 69 1015.3
20260507125207 52 190 9.6 17.4 0.00 0.00 0.00 70 1015.3
20260507124707 52 190 12.2 17.4 0.00 0.00 0.00 69 1015.3
20260507124207 52 206 8.7 14.8 0.00 0.00 0.00 71 1015.2
20260507123707 52 196 12.2 19.1 0.00 0.00 0.00 70 1015.2
20260507123207 52 206 11.3 18.2 0.00 0.00 0.00 71 1015.2
20260507122707 52 207 12.2 20.9 0.00 0.00 0.00 70 1015.2
20260507122207 52 226 10.4 17.4 0.00 0.00 0.00 70 1015.2
20260507121707 52 200 10.4 17.4 0.00 0.00 0.00 71 1015.2
20260507120707 52 203 10.4 18.2 0.00 0.00 0.00 72 1015.2
20260507120207 52 188 13.9 18.2 0.00 0.00 0.00 74 1015.3
20260507115707 51 204 9.6 13.9 0.00 0.00 0.00 74 1015.3
20260507115207 51 203 11.3 22.6 0.00 0.00 0.00 72 1015.3
20260507114707 51 201 12.2 20.9 0.00 0.00 0.00 73 1015.2
20260507114206 50 207 11.3 18.2 0.00 0.00 0.00 73 1015.2
20260507113707 50 194 13.0 19.1 0.00 0.00 0.00 74 1015.3
20260507113207 51 195 11.3 17.4 0.00 0.00 0.00 74 1015.3
20260507112707 51 190 12.2 19.1 0.00 0.00 0.00 75 1015.4
20260507112207 50 196 9.6 15.6 0.00 0.00 0.00 75 1015.4
20260507111707 50 205 7.8 13.9 0.00 0.00 0.00 76 1015.5
20260507111206 49 217 8.7 14.8 0.00 0.00 0.00 78 1015.6
20260507110707 49 222 10.4 17.4 0.00 0.00 0.00 78 1015.6
20260507110207 49 198 11.3 17.4 0.00 0.00 0.00 77 1015.6
20260507105707 49 213 9.6 17.4 0.00 0.00 0.00 79 1015.6
20260507105207 48 208 7.8 13.0 0.00 0.00 0.00 79 1015.6
20260507104706 48 201 8.7 14.8 0.00 0.00 0.00 79 1015.6
20260507104207 48 196 8.7 13.9 0.00 0.00 0.00 80 1015.7
20260507103207 47 201 10.4 14.8 0.00 0.00 0.00 79 1015.7
20260507102207 47 196 9.6 14.8 0.00 0.00 0.00 80 1015.8
20260507101707 47 192 7.0 13.9 0.00 0.00 0.00 80 1015.8
20260507101206 47 203 9.6 13.9 0.00 0.00 0.00 80 1015.9
20260507100707 47 204 10.4 18.2 0.00 0.00 0.00 79 1015.8
20260507100207 47 191 9.6 14.8 0.00 0.00 0.00 80 1015.8
20260507095207 47 192 11.3 15.6 0.00 0.00 0.00 80 1015.8
20260507094207 47 200 12.2 19.1 0.00 0.00 0.00 81 1015.7
20260507093707 47 206 7.8 14.8 0.00 0.00 0.00 81 1015.8
20260507093207 47 212 10.4 15.6 0.00 0.00 0.00 82 1015.8
20260507092707 46 208 12.2 20.9 0.00 0.00 0.00 81 1015.7
20260507092206 46 200 9.6 19.1 0.00 0.00 0.00 83 1015.7
20260507091707 46 196 10.4 19.1 0.00 0.00 0.00 82 1015.8
20260507091207 46 207 10.4 20.9 0.00 0.00 0.00 82 1015.8
20260507090707 46 200 8.7 14.8 0.00 0.00 0.00 83 1015.7
20260507090207 46 209 10.4 17.4 0.00 0.00 0.00 83 1015.7
20260507085706 45 206 12.2 17.4 0.00 0.00 0.00 83 1015.7
20260507085206 45 209 8.7 17.4 0.00 0.00 0.00 84 1015.7
20260507084707 45 214 8.7 17.4 0.00 0.00 0.00 83 1015.8
20260507084206 45 203 11.3 19.1 0.00 0.00 0.00 83 1015.8
20260507083707 45 212 8.7 14.8 0.00 0.00 0.00 83 1015.9
20260507082707 45 204 8.7 13.0 0.00 0.00 0.00 83 1015.9
20260507081207 44 208 7.8 12.2 0.00 0.00 0.00 84 1015.9
20260507080707 44 206 7.8 13.0 0.00 0.00 0.00 85 1015.8
20260507080206 44 221 8.7 14.8 0.00 0.00 0.00 85 1015.8
20260507075707 44 207 10.4 17.4 0.00 0.00 0.00 85 1015.8
20260507075206 44 205 7.8 15.6 0.00 0.00 0.00 86 1015.8
20260507074707 43 220 7.8 15.6 0.00 0.00 0.00 86 1015.8
20260507073707 43 214 7.0 12.2 0.00 0.00 0.00 86 1015.8
20260507073208 43 208 7.8 12.2 0.00 0.00 0.00 86 1015.8
20260507072707 43 222 7.0 14.8 0.00 0.00 0.00 86 1015.8
20260507072207 43 203 6.1 11.3 0.00 0.00 0.00 86 1015.8
20260507071706 43 206 6.1 12.2 0.00 0.00 0.00 86 1015.8
20260507071207 43 200 7.0 12.2 0.00 0.00 0.00 87 1015.8
20260507070707 43 207 7.0 13.9 0.00 0.00 0.00 87 1015.9
20260507070207 43 205 7.8 11.3 0.00 0.00 0.00 87 1015.8
20260507065708 43 211 7.8 13.9 0.00 0.00 0.00 87 1015.8
20260507065206 43 217 6.1 13.9 0.00 0.00 0.00 88 1015.8
20260507064706 42 217 7.0 13.9 0.00 0.00 0.00 88 1015.8
20260507064206 42 205 6.1 11.3 0.00 0.00 0.00 89 1015.8
20260507063707 42 222 5.2 11.3 0.00 0.00 0.00 89 1015.7
20260507062706 42 206 4.3 10.4 0.00 0.00 0.00 90 1015.8
20260507062206 41 207 6.1 11.3 0.00 0.00 0.00 91 1015.8
20260507061706 41 211 6.1 10.4 0.00 0.00 0.00 93 1015.8
20260507061206 40 215 5.2 8.7 0.00 0.00 0.00 94 1015.7
20260507060707 39 249 1.7 7.0 0.00 0.00 0.00 94 1015.7
20260507060206 39 210 1.7 2.6 0.00 0.00 0.00 93 1015.7
20260507055206 38 236 1.7 4.3 0.00 0.00 0.00 93 1015.7
20260507054207 37 212 1.7 7.0 0.00 0.00 0.00 94 1015.7
20260507053707 37 221 4.3 6.1 0.00 0.00 0.00 94 1015.7
20260507052706 36 221 1.7 4.3 0.00 0.00 0.00 94 1015.6
20260507052206 35 213 0.9 4.3 0.00 0.00 0.00 94 1015.6
20260507051708 35 221 0.9 2.6 0.00 0.00 0.00 93 1015.6
20260507051207 35 217 0.0 1.7 0.00 0.00 0.00 94 1015.6
20260507050706 34 219 0.9 1.7 0.00 0.00 0.00 93 1015.6
20260507050206 34 224 0.9 2.6 0.00 0.00 0.00 94 1015.6
20260507045707 33 210 0.0 1.7 0.00 0.00 0.00 93 1015.6
20260507044707 33 218 0.0 2.6 0.00 0.00 0.00 93 1015.6
20260507044206 33 246 0.9 1.7 0.00 0.00 0.00 92 1015.7
20260507043707 32 214 0.0 0.9 0.00 0.00 0.00 92 1015.6
20260507043207 32 215 0.0 0.9 0.00 0.00 0.00 92 1015.6
20260507042206 33 200 0.0 1.7 0.00 0.00 0.00 92 1015.5
20260507041207 33 232 0.0 1.7 0.00 0.00 0.00 92 1015.5
20260507040707 33 248 0.0 1.7 0.00 0.00 0.00 92 1015.6
20260507040207 33 262 0.0 0.9 0.00 0.00 0.00 92 1015.5
20260507035707 33 259 0.0 1.7 0.00 0.00 0.00 92 1015.5
20260507034706 33 191 0.9 1.7 0.00 0.00 0.00 92 1015.6
20260507034207 33 197 0.0 0.9 0.00 0.00 0.00 92 1015.6
20260507033707 33 211 0.0 0.9 0.00 0.00 0.00 92 1015.7
20260507033206 33 212 0.0 0.9 0.00 0.00 0.00 92 1015.7
20260507032207 32 213 0.0 1.7 0.00 0.00 0.00 92 1015.7
20260507031707 32 220 0.0 0.9 0.00 0.00 0.00 92 1015.7
20260507031207 32 220 0.0 1.7 0.00 0.00 0.00 91 1015.7
20260507030706 32 220 0.0 0.9 0.00 0.00 0.00 91 1015.8
20260507030207 33 220 0.0 0.9 0.00 0.00 0.00 91 1015.8
20260507025207 33 220 0.9 1.7 0.00 0.00 0.00 92 1015.8
20260507024707 33 220 0.9 1.7 0.00 0.00 0.00 92 1015.8
20260507024206 33 221 0.0 1.7 0.00 0.00 0.00 91 1015.8
20260507023706 33 224 0.0 0.0 0.00 0.00 0.00 91 1015.8
20260507023207 33 224 0.0 0.9 0.00 0.00 0.00 91 1015.8
20260507022707 32 222 0.0 0.9 0.00 0.00 0.00 91 1015.8
20260507022207 32 223 0.0 0.9 0.00 0.00 0.00 91 1015.8
20260507021707 32 224 0.0 0.9 0.00 0.00 0.00 90 1015.8
20260507021207 32 224 0.0 0.9 0.00 0.00 0.00 90 1015.8
20260507015707 33 222 0.0 0.9 0.00 0.00 0.00 90 1015.8
20260507015207 33 222 0.0 0.9 0.00 0.00 0.00 90 1015.9
20260507014206 33 223 0.0 0.9 0.00 0.00 0.00 90 1015.9
20260507013707 33 223 0.0 0.9 0.00 0.00 0.00 90 1015.9
20260507013207 34 223 0.0 0.9 0.00 0.00 0.00 90 1015.8
20260507012707 34 223 0.9 2.6 0.00 0.00 0.00 91 1015.9
20260507012207 33 220 0.9 2.6 0.00 0.00 0.00 90 1015.9
20260507011708 33 183 0.0 1.7 0.00 0.00 0.00 90 1016.0
20260507010707 32 179 0.0 0.9 0.00 0.00 0.00 89 1015.9
20260507005706 33 182 0.0 2.6 0.00 0.00 0.00 89 1016.0
20260507005206 34 187 0.9 2.6 0.00 0.00 0.00 90 1016.1
20260507004706 34 213 0.9 1.7 0.00 0.00 0.00 89 1016.0
20260507004207 34 219 0.9 1.7 0.00 0.00 0.00 89 1015.9
20260507003706 34 224 0.0 0.9 0.00 0.00 0.00 89 1015.9
20260507003207 34 224 0.0 0.9 0.00 0.00 0.00 90 1015.9
20260507002706 34 224 0.9 1.7 0.00 0.00 0.00 90 1015.9
20260507002207 34 227 0.9 1.7 0.00 0.00 0.00 90 1015.9
20260507001707 34 237 0.9 2.6 0.00 0.00 0.00 90 1016.0
20260507001207 34 190 0.0 0.9 0.00 0.00 0.00 91 1016.0
20260507000706 34 190 0.0 0.9 0.00 0.00 0.00 91 1016.0
20260506235706 33 190 0.0 1.7 0.00 0.00 0.00 88 1016.0
20260506235207 33 189 0.9 1.7 0.00 0.00 0.00 89 1016.1
20260506234707 34 189 0.0 1.7 0.00 0.00 0.00 90 1016.1
20260506234207 33 188 0.9 1.7 0.00 0.00 0.00 90 1016.1
20260506233707 33 186 0.0 0.9 0.00 0.00 0.00 90 1016.2
20260506233207 33 186 0.0 1.7 0.00 0.00 0.00 89 1016.2
20260506232206 33 184 0.0 0.9 0.00 0.00 0.00 89 1016.2
20260506231206 33 184 0.0 0.9 0.00 0.00 0.00 89 1016.2
20260506230714 34 184 0.9 1.7 0.00 0.00 0.00 90 1016.1
20260506230207 34 184 0.9 1.7 0.00 0.00 0.00 90 1016.1
20260506225707 33 184 0.9 1.7 0.00 0.00 0.00 90 1016.0
20260506225207 33 182 1.7 1.7 0.00 0.00 0.00 90 1016.2
20260506224706 32 181 0.9 1.7 0.00 0.00 0.00 89 1016.1
20260506223707 31 186 0.0 0.0 0.00 0.00 0.00 88 1016.2
20260506223207 31 186 0.0 0.9 0.00 0.00 0.00 88 1016.2
20260506222706 32 186 0.0 0.9 0.00 0.00 0.00 88 1016.2
20260506222207 32 186 0.0 0.9 0.00 0.00 0.00 87 1016.2
20260506221706 32 186 0.0 0.0 0.00 0.00 0.00 87 1016.2
20260506221207 32 186 0.0 0.0 0.00 0.00 0.00 87 1016.2
20260506220707 32 186 0.0 0.9 0.00 0.00 0.00 87 1016.2
20260506220206 33 186 1.7 2.6 0.00 0.00 0.00 87 1016.2
20260506215706 33 185 0.9 2.6 0.00 0.00 0.00 87 1016.2
20260506215207 33 176 0.0 1.7 0.00 0.00 0.00 86 1016.3
20260506214706 33 176 0.9 1.7 0.00 0.00 0.00 86 1016.2
20260506214206 33 180 0.0 0.9 0.00 0.00 0.00 86 1016.2
20260506213707 33 182 0.0 1.7 0.00 0.00 0.00 86 1016.2
20260506212707 33 182 0.0 1.7 0.00 0.00 0.00 85 1016.2
20260506212207 34 183 0.0 1.7 0.00 0.00 0.00 85 1016.2
20260506211707 34 183 0.0 0.9 0.00 0.00 0.00 85 1016.2
20260506211207 34 183 0.0 1.7 0.00 0.00 0.00 85 1016.1
20260506210706 34 180 0.9 2.6 0.00 0.00 0.00 85 1016.1
20260506210206 34 175 0.9 2.6 0.00 0.00 0.00 84 1016.1
20260506205707 34 191 0.9 1.7 0.00 0.00 0.00 84 1016.1
20260506205207 34 191 0.9 2.6 0.00 0.00 0.00 83 1016.1
20260506204706 34 181 2.6 4.3 0.00 0.00 0.00 83 1016.1
20260506204206 34 186 2.6 4.3 0.00 0.00 0.00 82 1016.2
20260506203707 35 186 1.7 2.6 0.00 0.00 0.00 82 1016.1
20260506203206 35 185 1.7 2.6 0.00 0.00 0.00 82 1016.1
20260506202708 35 181 0.9 1.7 0.00 0.00 0.00 81 1016.1
20260506202206 35 177 0.9 1.7 0.00 0.00 0.00 80 1016.1
20260506201705 36 174 1.7 4.3 0.00 0.00 0.00 80 1016.0
20260506201206 36 190 2.6 2.6 0.00 0.00 0.00 79 1016.0
20260506200707 37 177 2.6 2.6 0.00 0.00 0.00 79 1015.9
20260506200207 37 188 2.6 2.6 0.00 0.00 0.00 78 1015.9
20260506195707 37 194 0.9 2.6 0.00 0.00 0.00 76 1015.9
20260506195205 38 45 0.0 0.0 0.00 0.00 0.00 75 1015.9
20260506194706 39 45 0.0 0.0 0.00 0.00 0.00 74 1015.9
20260506194207 40 45 0.0 0.0 0.00 0.00 0.00 74 1015.9
20260506193706 41 45 0.0 0.0 0.00 0.00 0.00 74 1015.9
20260506193207 41 45 0.0 0.0 0.00 0.00 0.00 74 1015.8
20260506192206 42 45 0.0 0.0 0.00 0.00 0.00 74 1015.8
20260506191206 43 45 0.0 0.9 0.00 0.00 0.00 73 1015.7
20260506190707 43 45 0.0 1.7 0.00 0.00 0.00 72 1015.7
20260506185706 44 61 0.9 1.7 0.00 0.00 0.00 71 1015.7
20260506185206 44 44 0.9 1.7 0.00 0.00 0.00 71 1015.7
20260506184707 44 96 0.0 2.6 0.00 0.00 0.00 71 1015.6
20260506184206 44 93 0.9 2.6 0.00 0.00 0.00 70 1015.6
20260506183706 45 59 0.9 2.6 0.00 0.00 0.00 70 1015.6
20260506183207 45 107 1.7 5.2 0.00 0.00 0.00 70 1015.6
20260506182706 45 102 0.9 2.6 0.00 0.00 0.00 70 1015.5
20260506181707 45 80 0.9 2.6 0.00 0.00 0.00 70 1015.5
20260506181205 45 55 1.7 4.3 0.00 0.00 0.00 70 1015.6
20260506180706 45 86 1.7 2.6 0.00 0.00 0.00 70 1015.5
20260506180206 46 83 0.9 2.6 0.00 0.00 0.00 71 1015.6
20260506175706 45 95 0.9 2.6 0.00 0.00 0.00 72 1015.5
20260506175207 45 86 1.7 7.8 0.00 0.00 0.00 71 1015.5
20260506174206 45 63 1.7 4.3 0.00 0.00 0.00 72 1015.4
20260506173706 44 65 1.7 6.1 0.00 0.00 0.00 71 1015.5
20260506172707 45 63 1.7 2.6 0.00 0.00 0.00 70 1015.5
20260506172206 45 73 1.7 4.3 0.00 0.00 0.00 71 1015.5
20260506171705 45 78 0.9 2.6 0.00 0.00 0.00 70 1015.5